[[{"header":{"parameterUnit":"m.s-1","parameterCategory":2,"la1":30.2991,"la2":30.254,"lo1":-89.0895,"lo2":-89.0444,"dy":0.0017,"dx":0.0017,"nx":28,"ny":28,"refTime":"2024-07-11T03:00:00:Z","depth":"0","parameterNumber":2,"parameterNumberName":"U-component_of_CURRENTS"},"data":[0,0,0,0,0,0,0,0,0,0,0,0,0,0,0,0,0,0,0,0,0,0,0,0,0,0,0,0,0,0,0,0,0,0,0,0,0,0,0,0,0,0,0,0,0,0,0,0,0,0,0,0,0,0,0,0,0,0,0.2234,0.2234,0,0.2279,0.228,0.228,0.2309,0.2309,0.2309,0.2309,0.2381,0.2383,0.2384,0,0,0,0,0,0,0,0,0,0,0,0,0,0.2195,0.2195,0.2234,0.2234,0.2235,0.2279,0.228,0.2281,0.2309,0.2309,0.2309,0.2309,0.238,0.2382,0.2384,0,0,0,0,0,0,0,0,0,0,0,0,0,0.2224,0.2195,0.2234,0.2254,0.2256,0.2279,0.228,0.2281,0.2309,0.2309,0.2309,0.231,0.2379,0.2382,0.2385,0.2398,0,0,0.2393,0.2394,0,0,0,0,0,0,0,0,0.2222,0.2225,0.2251,0.2253,0.2255,0.2288,0.2292,0.2321,0.2309,0.229,0.2309,0.231,0.2352,0.2357,0.2365,0.2401,0.2404,0.2393,0.2395,0.2396,0.2397,0,0,0,0,0,0,0,0.222,0.2223,0.2253,0.2251,0.2254,0.2269,0.2273,0.2298,0.232,0.2291,0.2293,0.2297,0.2353,0.2363,0.2367,0.2406,0.2393,0.2396,0.2397,0.2398,0.2435,0.2435,0,0,0,0,0,0,0.2212,0.2221,0.2251,0.2254,0.2238,0.2269,0.2274,0.2278,0.2319,0.2325,0.2297,0.2299,0.2358,0.2364,0.237,0.24,0.2396,0.2399,0.24,0.2436,0.2435,0.2435,0,0,0,0,0,0,0.2211,0.2214,0.2249,0.2238,0.2244,0.2269,0.2274,0.2279,0.2287,0.2323,0.233,0.23,0.2358,0.2366,0.2383,0.2402,0.24,0.2402,0.2437,0.2436,0.2435,0.2452,0,0,0,0,0,0,0.2209,0.2213,0.2221,0.2238,0.2244,0.2268,0.2274,0.2279,0.2289,0.2291,0.2328,0.2335,0.2359,0.2379,0.2386,0.2406,0.2404,0.2438,0.2436,0.2435,0.2452,0.2451,0.2451,0,0,0,0,0,0.2208,0.2215,0.2221,0.2225,0.2251,0.2269,0.2274,0.2293,0.2289,0.2299,0.2311,0.2334,0.2376,0.2381,0.2389,0.241,0.2438,0.2437,0.2435,0.2452,0.2451,0.2451,0,0,0,0,0,0,0.2203,0.2219,0.2226,0.2238,0.2255,0.2273,0.2284,0.2288,0.2305,0.2303,0.233,0.2338,0.2358,0.2372,0.2375,0.2412,0.241,0.241,0.2419,0.2419,0.2419,0.2438,0.2407,0,0,0,0,0,0.2204,0.2212,0.223,0.224,0.2247,0.2262,0.2272,0.2281,0.2294,0.2302,0.2324,0.234,0.2358,0.2378,0.2392,0.2419,0.2451,0.2433,0.2433,0.2433,0.245,0.249,0.2496,0.243,0.243,0.243,0,0,0.2202,0.2214,0.2217,0.2239,0.2251,0.2274,0.2269,0.228,0.23,0.2307,0.2336,0.2338,0.2359,0.2386,0.2397,0.2404,0.2469,0.2431,0.2431,0.2449,0.249,0.2497,0.2503,0.2429,0.2429,0.2429,0,0,0.2204,0.2213,0.2223,0.2241,0.226,0.2276,0.2276,0.2293,0.2302,0.2322,0.2327,0.2341,0.2371,0.2397,0.2412,0.2416,0.2456,0.241,0.2443,0.2481,0.2488,0.2494,0.2555,0.2566,0.2421,0.2421,0.2421,0,0.2205,0.2222,0.2229,0.225,0.2267,0.2276,0.2296,0.2312,0.2332,0.234,0.2333,0.2368,0.2384,0.2426,0.2426,0.2422,0.2451,0.2449,0.2484,0.2491,0.2497,0.2558,0.2571,0.2422,0.2422,0.2422,0.2422,0,0.2218,0.2239,0.2245,0.2279,0.2298,0.2313,0.2337,0.2352,0.2357,0.2371,0.2393,0.2407,0.2435,0.2435,0.2438,0.2485,0.2494,0.2473,0.2494,0.2506,0.2568,0.2581,0.2423,0.2423,0.2422,0.2422,0,0,0.2199,0.2247,0.225,0.227,0.2313,0.2325,0.2362,0.2395,0.2415,0.243,0.246,0.2482,0.2481,0.2496,0.2498,0.2532,0.2603,0.2525,0.2526,0.2602,0.2707,0.2711,0.2725,0.2585,0.2586,0.2588,0.2738,0,0.2209,0.2252,0.2275,0.2315,0.2338,0.2364,0.2401,0.2429,0.2449,0.2481,0.2496,0.2521,0.2508,0.2518,0.2552,0.2579,0.2635,0.2565,0.2671,0.2675,0.269,0.2739,0.2612,0.2734,0.2751,0.2753,0.2755,0,0.2211,0.2245,0.2283,0.2334,0.2345,0.2371,0.242,0.2453,0.2503,0.2516,0.2549,0.256,0.2617,0.2591,0.2689,0.2642,0.2687,0.2711,0.2717,0.2727,0.2702,0.2721,0.2757,0.2669,0.2775,0.2774,0.2772,0,0.2183,0.2243,0.2272,0.229,0.2354,0.2371,0.2407,0.2458,0.2481,0.2541,0.2562,0.2623,0.2654,0.2712,0.2764,0.2734,0.2868,0.2834,0.2892,0.2894,0.2812,0.2803,0.2789,0.2923,0.2923,0.2922,0.2922,0,0.2176,0.2197,0.2259,0.2273,0.2309,0.2355,0.2389,0.2433,0.249,0.2523,0.2574,0.2614,0.2681,0.2755,0.2801,0.2897,0.2909,0.2927,0.2938,0.2813,0.2803,0.2742,0.2704,0.2928,0.2927,0.2926,0.2925,0,0.2128,0.2173,0.2205,0.2272,0.2291,0.2312,0.2373,0.2397,0.246,0.251,0.2531,0.2626,0.2735,0.2812,0.2923,0.2949,0.2957,0.3064,0.2928,0.2921,0.2882,0.285,0.2816,0.2736,0.3167,0.3168,0.3169,0,0.2105,0.2118,0.2186,0.22,0.2225,0.2265,0.2293,0.237,0.2401,0.2513,0.2537,0.2662,0.2739,0.2918,0.3005,0.3127,0.3004,0.3061,0.2981,0.2891,0.2864,0.2756,0.2681,0.2887,0.2886,0.2885,0.2884,0,0.2056,0.2078,0.2101,0.2145,0.2171,0.2206,0.2256,0.2276,0.2371,0.2421,0.2513,0.2588,0.279,0.286,0.3021,0.3067,0.2901,0.3043,0.2966,0.2675,0.2537,0.246,0.2798,0.2873,0.2874,0.2875,0.2875,0.2876,0.2006,0.2012,0.2048,0.2076,0.2105,0.2134,0.2133,0.2194,0.2241,0.2305,0.2437,0.2514,0.2658,0.2883,0.292,0.2898,0.2903,0.2802,0.2788,0.2701,0.2558,0.2898,0.2967,0.2968,0.2969,0.2971,0.2972,0,0.1958,0.1968,0.1982,0.2009,0.2006,0.2059,0.2093,0.2077,0.2097,0.2209,0.2284,0.24,0.2481,0.2591,0.2686,0.2635,0.2509,0.2545,0.2329,0.2282,0.2602,0.252,0.2471,0.2471,0.2471,0.2471,0.2471,0.2471,0.1934,0.1929,0.1937,0.1909,0.1918,0.1891,0.1894,0.1886,0.1936,0.1976,0.2038,0.2144,0.2318,0.2433,0.2415,0.2363,0.2184,0.2107,0.2115,0.2302,0.2322,0.2341,0.2253,0.2149,0.2148,0.1669,0.1665,0.1663]},{"header":{"parameterUnit":"m.s-1","parameterCategory":2,"la1":30.2991,"la2":30.254,"lo1":-89.0895,"lo2":-89.0444,"dy":0.0017,"dx":0.0017,"nx":28,"ny":28,"refTime":"2024-07-11T03:00:00:Z","depth":"0","parameterNumber":3,"parameterNumberName":"V-component_of_CURRENTS"},"data":[0,0,0,0,0,0,0,0,0,0,0,0,0,0,0,0,0,0,0,0,0,0,0,0,0,0,0,0,0,0,0,0,0,0,0,0,0,0,0,0,0,0,0,0,0,0,0,0,0,0,0,0,0,0,0,0,0,0,-0.0506,-0.0508,0,-0.0687,-0.0689,-0.0691,-0.0806,-0.0807,-0.0808,-0.0809,-0.0921,-0.0923,-0.0926,0,0,0,0,0,0,0,0,0,0,0,0,0,-0.0227,-0.0232,-0.0505,-0.0508,-0.051,-0.0687,-0.0689,-0.0691,-0.0806,-0.0807,-0.0808,-0.0809,-0.0921,-0.0923,-0.0926,0,0,0,0,0,0,0,0,0,0,0,0,0,-0.0371,-0.0233,-0.0505,-0.059,-0.0599,-0.0686,-0.0689,-0.0692,-0.0806,-0.0807,-0.0808,-0.081,-0.092,-0.0923,-0.0926,-0.0923,0,0,-0.0937,-0.0938,0,0,0,0,0,0,0,0,-0.0363,-0.0381,-0.0575,-0.0584,-0.0595,-0.0726,-0.0632,-0.0766,-0.0806,-0.0726,-0.0809,-0.081,-0.085,-0.0859,-0.089,-0.0928,-0.0933,-0.0937,-0.0939,-0.094,-0.0941,0,0,0,0,0,0,0,-0.0353,-0.0374,-0.0576,-0.0577,-0.059,-0.0608,-0.063,-0.0658,-0.0777,-0.0733,-0.0742,-0.0764,-0.0855,-0.0886,-0.0893,-0.0935,-0.0937,-0.094,-0.0942,-0.0943,-0.0989,-0.0988,0,0,0,0,0,0,-0.0334,-0.0365,-0.057,-0.0582,-0.0481,-0.0612,-0.0637,-0.0682,-0.0778,-0.0795,-0.0763,-0.0769,-0.088,-0.0889,-0.0897,-0.0905,-0.094,-0.0944,-0.0945,-0.0989,-0.0988,-0.0988,0,0,0,0,0,0,-0.0328,-0.0351,-0.0563,-0.0476,-0.0505,-0.0616,-0.0666,-0.0685,-0.0719,-0.0802,-0.0817,-0.0778,-0.0881,-0.0892,-0.0921,-0.091,-0.0945,-0.0948,-0.099,-0.0989,-0.0988,-0.0916,0,0,0,0,0,0,-0.0319,-0.0349,-0.0363,-0.0476,-0.0509,-0.0606,-0.0665,-0.0688,-0.0732,-0.0741,-0.0819,-0.0832,-0.0883,-0.0916,-0.0925,-0.0915,-0.0951,-0.0991,-0.099,-0.0988,-0.0919,-0.0912,-0.0906,0,0,0,0,0,-0.0309,-0.0325,-0.0363,-0.0387,-0.053,-0.0605,-0.0623,-0.0704,-0.073,-0.074,-0.0793,-0.0829,-0.0912,-0.0918,-0.0928,-0.0919,-0.0992,-0.099,-0.0989,-0.0922,-0.0914,-0.0907,0,0,0,0,0,0,-0.0204,-0.0342,-0.0385,-0.0441,-0.0512,-0.0625,-0.064,-0.0692,-0.0744,-0.0747,-0.0821,-0.0836,-0.0859,-0.0892,-0.0896,-0.0927,-0.0957,-0.0957,-0.0903,-0.0895,-0.0889,-0.0868,-0.0954,0,0,0,0,0,-0.0188,-0.0244,-0.036,-0.04,-0.0431,-0.0529,-0.0565,-0.0622,-0.0689,-0.0715,-0.0771,-0.082,-0.0858,-0.0878,-0.0917,-0.0929,-0.0938,-0.0929,-0.0922,-0.0917,-0.0906,-0.0909,-0.0902,-0.0982,-0.0982,-0.0982,0,0,-0.016,-0.0239,-0.0272,-0.038,-0.0441,-0.0488,-0.0554,-0.0604,-0.0638,-0.0713,-0.0756,-0.0798,-0.0855,-0.088,-0.0891,-0.0907,-0.0895,-0.0914,-0.0909,-0.0902,-0.0907,-0.0899,-0.0892,-0.098,-0.098,-0.0981,0,0,-0.0131,-0.0197,-0.0236,-0.0292,-0.0381,-0.044,-0.0449,-0.0553,-0.0589,-0.0633,-0.0694,-0.0723,-0.0788,-0.0829,-0.0857,-0.0831,-0.086,-0.0843,-0.0796,-0.0799,-0.0793,-0.0787,-0.0769,-0.0762,-0.084,-0.084,-0.084,0,-0.0095,-0.0167,-0.0248,-0.0292,-0.033,-0.0414,-0.0445,-0.0492,-0.0589,-0.0604,-0.0632,-0.0717,-0.0764,-0.0793,-0.0792,-0.0816,-0.0816,-0.0823,-0.079,-0.0785,-0.078,-0.0763,-0.0757,-0.0836,-0.0837,-0.0837,-0.0838,0,-0.0103,-0.0153,-0.0168,-0.0263,-0.0301,-0.0338,-0.0416,-0.0442,-0.0486,-0.0539,-0.057,-0.0634,-0.0683,-0.0702,-0.0744,-0.0737,-0.0745,-0.078,-0.0807,-0.0767,-0.0753,-0.0747,-0.0831,-0.0832,-0.0834,-0.0834,0,0,-0.0068,-0.0162,-0.017,-0.0198,-0.0291,-0.0323,-0.0351,-0.0406,-0.0415,-0.0481,-0.049,-0.0557,-0.0585,-0.0616,-0.0666,-0.0673,-0.064,-0.0707,-0.0709,-0.0683,-0.0626,-0.0608,-0.0601,-0.067,-0.0669,-0.0668,-0.0621,0,-0.0059,-0.0112,-0.0166,-0.0201,-0.0234,-0.0294,-0.0313,-0.0359,-0.0397,-0.0418,-0.0466,-0.0495,-0.0555,-0.0568,-0.0584,-0.0634,-0.0625,-0.0648,-0.0673,-0.0673,-0.0658,-0.0594,-0.0548,-0.05,-0.0616,-0.0615,-0.0615,0,-0.0066,-0.01,-0.0127,-0.0176,-0.0192,-0.0212,-0.024,-0.027,-0.0307,-0.033,-0.0358,-0.0404,-0.0429,-0.0478,-0.0521,-0.0533,-0.0563,-0.0596,-0.0595,-0.0601,-0.0646,-0.0563,-0.0486,-0.0619,-0.0607,-0.0607,-0.0608,0,-0.0012,-0.0076,-0.0086,-0.0109,-0.0172,-0.0172,-0.0196,-0.0235,-0.0239,-0.0264,-0.0254,-0.031,-0.0315,-0.0374,-0.0445,-0.0479,-0.0474,-0.0535,-0.054,-0.0539,-0.0514,-0.0512,-0.0564,-0.0538,-0.0538,-0.0538,-0.0538,0,-0.0001,-0.0013,-0.0055,-0.0067,-0.0057,-0.0116,-0.0101,-0.0131,-0.0146,-0.012,-0.0196,-0.0169,-0.0287,-0.031,-0.0393,-0.0433,-0.043,-0.0506,-0.052,-0.0486,-0.0482,-0.0611,-0.0687,-0.0536,-0.0536,-0.0537,-0.0537,0,0.0041,0.0009,-0.0003,-0.0037,-0.0037,-0.0029,-0.0038,-0.0026,-0.0046,-0.0007,-0.0003,-0.0046,-0.007,-0.0177,-0.0254,-0.0342,-0.0451,-0.0415,-0.0355,-0.0363,-0.0516,-0.0588,-0.063,-0.0667,-0.0417,-0.0416,-0.0416,0,0.005,0.0049,0.004,0.005,0.0037,0.0046,0.0058,0.0032,0.0056,0.0083,0.0121,0.0109,0.0127,0.0019,-0.0128,-0.0243,-0.0382,-0.0298,-0.0366,-0.0491,-0.0583,-0.0649,-0.0683,-0.0297,-0.0295,-0.0294,-0.0293,0,0.0073,0.0079,0.0078,0.0107,0.0127,0.015,0.0172,0.0214,0.0213,0.0272,0.0355,0.0377,0.0278,0.019,0.0008,-0.0094,-0.0375,-0.0276,-0.0423,-0.0494,-0.055,-0.0602,-0.0357,-0.0281,-0.0282,-0.0283,-0.0284,-0.0284,0.0105,0.0117,0.013,0.016,0.0193,0.0254,0.0304,0.0359,0.0447,0.0561,0.0561,0.0656,0.0463,0.0231,0.0056,-0.0251,-0.0282,-0.0363,-0.0436,-0.0489,-0.0538,-0.0255,-0.0196,-0.0196,-0.0197,-0.0197,-0.0198,0,0.0135,0.0148,0.0177,0.0222,0.0281,0.0286,0.0378,0.0456,0.0606,0.0736,0.084,0.0846,0.0602,0.0302,-0.011,-0.0366,-0.0477,-0.0524,-0.0622,-0.0647,-0.0401,-0.0413,-0.0376,-0.0376,-0.0376,-0.0376,-0.0376,-0.0376,0.0151,0.0183,0.0196,0.029,0.0335,0.0435,0.0505,0.0645,0.0766,0.0977,0.1086,0.1129,0.0905,0.0114,-0.0464,-0.0603,-0.0798,-0.082,-0.0942,-0.0809,-0.0801,-0.0794,-0.0825,-0.0874,-0.0875,-0.1146,-0.1148,-0.1151]}],[{"header":{"parameterUnit":"m.s-1","parameterCategory":2,"la1":30.2991,"la2":30.254,"lo1":-89.0895,"lo2":-89.0444,"dy":0.0017,"dx":0.0017,"nx":28,"ny":28,"refTime":"2024-07-11T03:00:00:Z","depth":"2","parameterNumber":2,"parameterNumberName":"U-component_of_CURRENTS"},"data":[0,0,0,0,0,0,0,0,0,0,0,0,0,0,0,0,0,0,0,0,0,0,0,0,0,0,0,0,0,0,0,0,0,0,0,0,0,0,0,0,0,0,0,0,0,0,0,0,0,0,0,0,0,0,0,0,0,0,0.2149,0.2148,0,0.207,0.2068,0.2067,0.2025,0.2026,0.2026,0.2027,0.192,0.1917,0.1913,0,0,0,0,0,0,0,0,0,0,0,0,0,0.1966,0.197,0.2149,0.2148,0.2148,0.207,0.2068,0.2066,0.2025,0.2026,0.2027,0.2028,0.1921,0.1917,0.1913,0,0,0,0,0,0,0,0,0,0,0,0,0,0.1974,0.1972,0.2149,0.2125,0.2123,0.2071,0.2068,0.2066,0.2025,0.2026,0.2027,0.2028,0.1923,0.1918,0.1912,0.1856,0,0,0.1896,0.1894,0,0,0,0,0,0,0,0,0.1974,0.198,0.2129,0.2127,0.2124,0.2067,0.1965,0.1997,0.2024,0.2052,0.2027,0.2029,0.1972,0.1962,0.1932,0.1851,0.1847,0.1895,0.1892,0.189,0.1888,0,0,0,0,0,0,0,0.1974,0.1981,0.2108,0.2129,0.2126,0.2017,0.2021,0.1969,0.1999,0.205,0.2049,0.2054,0.1969,0.1937,0.193,0.1845,0.1896,0.1891,0.1888,0.1885,0.1759,0.1758,0,0,0,0,0,0,0.2017,0.1983,0.2111,0.2107,0.2061,0.2021,0.2025,0.2076,0.2,0.1992,0.2054,0.2053,0.1946,0.1936,0.1926,0.1908,0.189,0.1885,0.1882,0.1759,0.1759,0.1758,0,0,0,0,0,0,0.2015,0.2031,0.2114,0.2046,0.2051,0.2027,0.2082,0.2074,0.2071,0.2005,0.1995,0.2063,0.1947,0.1933,0.1896,0.1902,0.1883,0.1878,0.1759,0.1759,0.1758,0.1839,0,0,0,0,0,0,0.201,0.2032,0.2062,0.2052,0.2057,0.2099,0.2081,0.2072,0.2076,0.2075,0.2009,0.1998,0.1946,0.1904,0.1891,0.1894,0.1874,0.1759,0.1759,0.1759,0.1837,0.1842,0.1846,0,0,0,0,0,0.2005,0.2058,0.2066,0.2079,0.211,0.2101,0.2091,0.2068,0.2076,0.207,0.203,0.2002,0.1893,0.19,0.1884,0.1886,0.1759,0.1759,0.1759,0.1835,0.1841,0.1846,0,0,0,0,0,0,0.1981,0.2059,0.2067,0.2139,0.2127,0.2098,0.2091,0.2087,0.2048,0.2051,0.1995,0.1981,0.1951,0.1905,0.1915,0.1848,0.1823,0.1819,0.1886,0.1891,0.1896,0.1942,0.1869,0,0,0,0,0,0.1998,0.2074,0.209,0.2143,0.2143,0.2121,0.2112,0.2103,0.2079,0.2064,0.2027,0.1979,0.1929,0.1905,0.1852,0.1813,0.1845,0.1805,0.1809,0.1814,0.184,0.1896,0.191,0.1757,0.1757,0.1757,0,0,0.2014,0.2056,0.2104,0.2144,0.213,0.2117,0.2117,0.212,0.2108,0.2057,0.2031,0.1996,0.1924,0.1881,0.1863,0.1849,0.1876,0.1813,0.1818,0.1842,0.1897,0.1913,0.1927,0.1757,0.1757,0.1757,0,0,0.2046,0.211,0.2159,0.2148,0.2148,0.2131,0.2146,0.2132,0.2125,0.2096,0.206,0.2044,0.1959,0.1921,0.1885,0.1885,0.1903,0.1862,0.1919,0.1973,0.1988,0.2001,0.2085,0.2105,0.1861,0.1861,0.1861,0,0.2046,0.2118,0.2157,0.2157,0.2153,0.2147,0.2146,0.2125,0.2102,0.2109,0.21,0.2033,0.1978,0.1943,0.1942,0.1899,0.1951,0.1905,0.1985,0.1998,0.201,0.2094,0.2115,0.1865,0.1865,0.1864,0.1864,0,0.2085,0.2123,0.214,0.2158,0.2149,0.2154,0.2137,0.2138,0.2142,0.2131,0.2129,0.2074,0.205,0.2018,0.1976,0.202,0.2038,0.1993,0.1984,0.2032,0.2115,0.2136,0.1871,0.1869,0.1868,0.1867,0,0,0.2136,0.217,0.2169,0.2169,0.2156,0.2154,0.2147,0.2147,0.2169,0.2151,0.2187,0.2118,0.2141,0.2106,0.2068,0.2104,0.2231,0.2098,0.2099,0.2208,0.2401,0.2312,0.2326,0.2216,0.2219,0.2222,0.2435,0,0.2143,0.216,0.2175,0.217,0.2171,0.2166,0.2163,0.2162,0.217,0.2199,0.2187,0.2195,0.2155,0.217,0.2204,0.2214,0.2287,0.2181,0.2316,0.2321,0.2257,0.2346,0.2081,0.2239,0.2456,0.2459,0.2461,0,0.2151,0.2171,0.2178,0.2196,0.2198,0.2195,0.2218,0.2219,0.2247,0.2266,0.2298,0.2298,0.2344,0.2308,0.2414,0.2359,0.2409,0.2424,0.2431,0.2337,0.2269,0.2218,0.2269,0.2496,0.2493,0.2491,0.2488,0,0.214,0.2164,0.2181,0.2177,0.2192,0.2212,0.223,0.225,0.2267,0.2336,0.237,0.2422,0.2462,0.253,0.2561,0.2519,0.2691,0.2624,0.2606,0.2601,0.2395,0.2365,0.2745,0.2745,0.2744,0.2744,0.2743,0,0.2126,0.2132,0.2187,0.2184,0.2217,0.2235,0.2271,0.2299,0.2351,0.2379,0.2427,0.2461,0.2525,0.2602,0.2637,0.2695,0.2766,0.2659,0.2655,0.2413,0.2384,0.26,0.2581,0.2752,0.275,0.2749,0.2747,0,0.2078,0.2113,0.213,0.2183,0.2204,0.2228,0.2281,0.2304,0.2377,0.2424,0.2458,0.2534,0.2643,0.2706,0.282,0.2781,0.2844,0.2851,0.2579,0.2537,0.2713,0.2695,0.2874,0.2872,0.2871,0.287,0.287,0,0.2053,0.206,0.2119,0.2133,0.2157,0.2204,0.2225,0.2302,0.2327,0.2444,0.2461,0.2597,0.2608,0.2753,0.2744,0.282,0.2894,0.263,0.2473,0.2751,0.273,0.2713,0.2696,0.2257,0.2251,0.2247,0.2243,0,0.2002,0.2027,0.204,0.2079,0.211,0.2137,0.2188,0.2207,0.2298,0.2336,0.2388,0.2414,0.2528,0.2445,0.2548,0.2549,0.2585,0.2537,0.2923,0.224,0.2179,0.2154,0.2157,0.2201,0.2206,0.2209,0.2211,0.2213,0.1963,0.1963,0.1992,0.2015,0.2041,0.2054,0.2048,0.2081,0.2101,0.2101,0.2211,0.2163,0.2204,0.2181,0.2176,0.2204,0.2373,0.2271,0.2282,0.2299,0.2163,0.21,0.2087,0.209,0.2093,0.2096,0.2098,0,0.1915,0.1919,0.1929,0.1944,0.1927,0.1985,0.1999,0.1944,0.1905,0.1902,0.1881,0.1714,0.1665,0.1777,0.1717,0.1741,0.1689,0.1714,0.1614,0.1656,0.1694,0.1523,0.1281,0.1278,0.1276,0.1274,0,0,0.1894,0.1875,0.1875,0.1831,0.1841,0.1797,0.1788,0.1681,0.1638,0.1498,0.1436,0.1484,0.1622,0.1381,0.1393,0.1326,0.1471,0.1276,0.1924,0.1841,0.1875,0.2006,0.179,0,0,0,0,0]},{"header":{"parameterUnit":"m.s-1","parameterCategory":2,"la1":30.2991,"la2":30.254,"lo1":-89.0895,"lo2":-89.0444,"dy":0.0017,"dx":0.0017,"nx":28,"ny":28,"refTime":"2024-07-11T03:00:00:Z","depth":"2","parameterNumber":3,"parameterNumberName":"V-component_of_CURRENTS"},"data":[0,0,0,0,0,0,0,0,0,0,0,0,0,0,0,0,0,0,0,0,0,0,0,0,0,0,0,0,0,0,0,0,0,0,0,0,0,0,0,0,0,0,0,0,0,0,0,0,0,0,0,0,0,0,0,0,0,0,-0.033,-0.0331,0,-0.0372,-0.0371,-0.0371,-0.0348,-0.0347,-0.0347,-0.0347,-0.0429,-0.0431,-0.0434,0,0,0,0,0,0,0,0,0,0,0,0,0,0.0015,0.0008,-0.033,-0.0331,-0.0333,-0.0372,-0.0371,-0.0371,-0.0348,-0.0347,-0.0347,-0.0347,-0.0428,-0.0431,-0.0434,0,0,0,0,0,0,0,0,0,0,0,0,0,-0.0083,0.0005,-0.0329,-0.0333,-0.0335,-0.0372,-0.0371,-0.0371,-0.0348,-0.0347,-0.0347,-0.0347,-0.0427,-0.0431,-0.0434,-0.0463,0,0,-0.0445,-0.0447,0,0,0,0,0,0,0,0,-0.0077,-0.0094,-0.0331,-0.0333,-0.0335,-0.0363,-0.028,-0.0407,-0.0348,-0.0332,-0.0347,-0.0347,-0.0418,-0.0422,-0.0415,-0.0467,-0.047,-0.0446,-0.0448,-0.0449,-0.045,0,0,0,0,0,0,0,-0.0071,-0.0091,-0.0336,-0.0333,-0.0335,-0.025,-0.0264,-0.0302,-0.0369,-0.0333,-0.0334,-0.0355,-0.0417,-0.0412,-0.0418,-0.0472,-0.0446,-0.0449,-0.0451,-0.0452,-0.0558,-0.0559,0,0,0,0,0,0,-0.0102,-0.0087,-0.0335,-0.0338,-0.0214,-0.0258,-0.0274,-0.0346,-0.0368,-0.0373,-0.0356,-0.0354,-0.0406,-0.0413,-0.0421,-0.0469,-0.0449,-0.0453,-0.0455,-0.0558,-0.0559,-0.0559,0,0,0,0,0,0,-0.0095,-0.0125,-0.0333,-0.0217,-0.0239,-0.0267,-0.0346,-0.0347,-0.0366,-0.0386,-0.039,-0.0377,-0.0406,-0.0416,-0.0461,-0.0472,-0.0454,-0.0458,-0.0557,-0.0558,-0.0559,-0.0559,0,0,0,0,0,0,-0.0085,-0.0124,-0.0165,-0.0222,-0.0247,-0.0357,-0.0348,-0.0349,-0.0383,-0.0381,-0.0406,-0.0412,-0.0406,-0.0456,-0.0465,-0.0477,-0.046,-0.0556,-0.0557,-0.0559,-0.0558,-0.056,-0.0561,0,0,0,0,0,-0.0074,-0.0135,-0.0168,-0.0196,-0.0313,-0.0359,-0.0362,-0.037,-0.0385,-0.0386,-0.0408,-0.0412,-0.0469,-0.046,-0.047,-0.0483,-0.0556,-0.0557,-0.0559,-0.0557,-0.056,-0.0561,0,0,0,0,0,0,-0.0002,-0.0142,-0.0178,-0.028,-0.032,-0.0359,-0.0363,-0.0391,-0.0408,-0.0411,-0.043,-0.0437,-0.0476,-0.0488,-0.0477,-0.0516,-0.051,-0.0514,-0.0506,-0.0508,-0.051,-0.048,-0.0463,0,0,0,0,0,-0.0015,-0.0103,-0.0196,-0.0272,-0.0297,-0.0339,-0.0357,-0.0375,-0.041,-0.0416,-0.0444,-0.0468,-0.0487,-0.0506,-0.0522,-0.0559,-0.055,-0.0572,-0.0573,-0.0574,-0.0557,-0.0562,-0.0561,-0.0564,-0.0564,-0.0564,0,0,-0.0015,-0.0097,-0.015,-0.0262,-0.029,-0.0314,-0.0346,-0.0386,-0.04,-0.0427,-0.0453,-0.0482,-0.0499,-0.0521,-0.054,-0.0536,-0.057,-0.0576,-0.0577,-0.0558,-0.0563,-0.0563,-0.0562,-0.0565,-0.0565,-0.0565,0,0,-0.0022,-0.0126,-0.018,-0.0213,-0.0278,-0.0304,-0.033,-0.039,-0.0405,-0.0449,-0.0462,-0.0498,-0.0543,-0.0543,-0.0552,-0.0581,-0.0579,-0.0598,-0.0584,-0.0589,-0.0588,-0.0588,-0.0577,-0.0575,-0.0598,-0.0598,-0.0598,0,-0.0005,-0.0102,-0.0189,-0.0217,-0.0238,-0.0307,-0.0325,-0.0352,-0.0417,-0.0432,-0.0454,-0.0511,-0.0541,-0.0554,-0.0559,-0.0583,-0.0581,-0.0574,-0.0589,-0.0588,-0.0588,-0.0576,-0.0574,-0.0598,-0.0598,-0.0598,-0.0598,0,-0.0034,-0.0094,-0.0118,-0.0192,-0.0217,-0.0248,-0.0304,-0.0335,-0.0381,-0.041,-0.0454,-0.0494,-0.052,-0.0547,-0.0563,-0.0577,-0.0576,-0.0591,-0.058,-0.0587,-0.0575,-0.0573,-0.0599,-0.0598,-0.0598,-0.0598,0,0,-0.0046,-0.0126,-0.013,-0.0143,-0.0207,-0.0233,-0.0259,-0.0301,-0.0314,-0.038,-0.0391,-0.045,-0.0483,-0.0495,-0.0533,-0.055,-0.0557,-0.0571,-0.0571,-0.055,-0.0557,-0.0527,-0.0521,-0.0579,-0.0579,-0.0578,-0.0551,0,-0.0035,-0.0069,-0.0117,-0.0131,-0.0151,-0.02,-0.0212,-0.0253,-0.0296,-0.0321,-0.0377,-0.0402,-0.046,-0.0478,-0.0506,-0.054,-0.0551,-0.0561,-0.0561,-0.056,-0.0524,-0.0518,-0.0492,-0.0463,-0.0549,-0.0549,-0.0548,0,-0.0041,-0.0065,-0.0075,-0.0105,-0.0117,-0.0128,-0.0156,-0.0179,-0.0222,-0.0251,-0.0291,-0.0334,-0.0371,-0.042,-0.047,-0.0477,-0.0512,-0.0542,-0.0542,-0.0506,-0.0525,-0.0471,-0.0456,-0.0544,-0.0545,-0.0545,-0.0545,0,0.0004,-0.0036,-0.0039,-0.0049,-0.009,-0.0096,-0.012,-0.0157,-0.0164,-0.0204,-0.0201,-0.0265,-0.0277,-0.0343,-0.0413,-0.0443,-0.0453,-0.0499,-0.0499,-0.0497,-0.0467,-0.0463,-0.052,-0.052,-0.052,-0.052,-0.052,0,0.0032,0.0028,-0.0018,-0.0018,-0.0011,-0.0058,-0.0052,-0.0081,-0.0102,-0.0078,-0.0161,-0.0133,-0.026,-0.0286,-0.0371,-0.0411,-0.0416,-0.0479,-0.0485,-0.0468,-0.0464,-0.053,-0.0532,-0.0519,-0.052,-0.052,-0.052,0,0.0089,0.0055,0.0049,0.0015,0.0009,0.0013,-0.0001,0.0008,-0.0021,0.0015,0.0011,-0.0027,-0.0052,-0.0165,-0.0247,-0.033,-0.0391,-0.0403,-0.0365,-0.0367,-0.0445,-0.0447,-0.0406,-0.0405,-0.0404,-0.0403,-0.0402,0,0.0121,0.012,0.009,0.0095,0.0082,0.008,0.0091,0.0056,0.0079,0.0105,0.0144,0.0124,0.016,0.0048,-0.0121,-0.0246,-0.0304,-0.0309,-0.0368,-0.0422,-0.0432,-0.0436,-0.0439,-0.0333,-0.0332,-0.0331,-0.033,0,0.0185,0.0166,0.0163,0.017,0.0177,0.0195,0.0208,0.0249,0.0241,0.0306,0.0406,0.0442,0.0318,0.0206,-0.0,-0.0093,-0.0297,-0.029,-0.0344,-0.0364,-0.035,-0.0361,-0.0367,-0.032,-0.0321,-0.0322,-0.0322,-0.0323,0.0238,0.0245,0.0231,0.0247,0.0262,0.0311,0.0357,0.042,0.0516,0.0608,0.0615,0.0663,0.0469,0.023,0.0051,-0.0179,-0.0187,-0.0278,-0.0283,-0.0288,-0.0283,-0.0267,-0.022,-0.022,-0.0221,-0.0221,-0.0221,0,0.0296,0.0285,0.0307,0.0324,0.0372,0.0349,0.0437,0.052,0.0693,0.0748,0.084,0.0699,0.0559,0.0316,-0.0009,-0.0182,-0.0224,-0.0238,-0.0268,-0.0274,-0.0281,-0.0278,-0.0213,-0.0213,-0.0214,-0.0214,0,0,0.0319,0.0347,0.035,0.0424,0.0435,0.0506,0.0568,0.0727,0.0803,0.0921,0.0914,0.0873,0.0605,0.0371,0.0129,-0.0053,-0.0125,-0.008,-0.0064,-0.0077,-0.0081,-0.0275,-0.0274,0,0,0,0,0]}],[{"header":{"parameterUnit":"m.s-1","parameterCategory":2,"la1":30.2991,"la2":30.254,"lo1":-89.0895,"lo2":-89.0444,"dy":0.0017,"dx":0.0017,"nx":28,"ny":28,"refTime":"2024-07-11T03:00:00:Z","depth":"4","parameterNumber":2,"parameterNumberName":"U-component_of_CURRENTS"},"data":[0,0,0,0,0,0,0,0,0,0,0,0,0,0,0,0,0,0,0,0,0,0,0,0,0,0,0,0,0,0,0,0,0,0,0,0,0,0,0,0,0,0,0,0,0,0,0,0,0,0,0,0,0,0,0,0,0,0,0.0249,0.0248,0,0.0265,0.0266,0.0266,0.0272,0.0272,0.0271,0.027,0.0348,0.035,0.0353,0,0,0,0,0,0,0,0,0,0,0,0,0,0.0458,0.0454,0.0249,0.0248,0.0248,0.0265,0.0266,0.0267,0.0272,0.0271,0.0271,0.027,0.0347,0.035,0.0353,0,0,0,0,0,0,0,0,0,0,0,0,0,0.0415,0.0452,0.0249,0.0249,0.0249,0.0265,0.0266,0.0267,0.0272,0.0271,0.0271,0.027,0.0346,0.035,0.0353,0.0394,0,0,0.0365,0.0367,0,0,0,0,0,0,0,0,0.0417,0.0408,0.0249,0.0249,0.0249,0.0261,0.0368,0.031,0.0273,0.0269,0.027,0.0269,0.0322,0.0327,0.0339,0.0397,0.0401,0.0366,0.0368,0.037,0.0371,0,0,0,0,0,0,0,0.042,0.0408,0.0261,0.0249,0.0249,0.0329,0.032,0.0358,0.0305,0.0269,0.0268,0.0262,0.0322,0.0335,0.0341,0.0402,0.0365,0.0369,0.0371,0.0373,0.0618,0.0622,0,0,0,0,0,0,0.0394,0.0409,0.026,0.026,0.0327,0.0325,0.0315,0.0262,0.0303,0.0307,0.0263,0.0262,0.0329,0.0336,0.0344,0.0513,0.037,0.0373,0.0375,0.0614,0.0619,0.0624,0,0,0,0,0,0,0.0398,0.0379,0.0259,0.0335,0.0325,0.0319,0.0262,0.0263,0.0302,0.0297,0.0302,0.0303,0.0329,0.0338,0.0392,0.0511,0.0375,0.0378,0.0609,0.0616,0.0621,0.0775,0,0,0,0,0,0,0.0403,0.0379,0.0353,0.0331,0.0319,0.0272,0.0262,0.0264,0.0295,0.0296,0.0333,0.0337,0.0329,0.0386,0.0396,0.0514,0.0381,0.0604,0.0612,0.0619,0.0765,0.0786,0.0804,0,0,0,0,0,0.041,0.0369,0.035,0.0334,0.0273,0.0272,0.0275,0.0275,0.0298,0.0312,0.0342,0.0337,0.0445,0.0391,0.0402,0.0524,0.06,0.061,0.0619,0.0756,0.0782,0.0803,0,0,0,0,0,0,0.0466,0.0365,0.0344,0.0278,0.0277,0.0271,0.0291,0.0302,0.0341,0.035,0.0365,0.0371,0.0478,0.047,0.0411,0.062,0.0535,0.0546,0.0636,0.066,0.0679,0.067,0.0385,0,0,0,0,0,0.0457,0.0384,0.0342,0.0298,0.0303,0.0312,0.0322,0.0317,0.0336,0.0354,0.0398,0.0452,0.0525,0.056,0.0605,0.0699,0.0666,0.0794,0.0814,0.0831,0.0832,0.0864,0.0886,0.0655,0.0655,0.0655,0,0,0.0465,0.0405,0.0364,0.0305,0.0315,0.0326,0.0319,0.0332,0.0371,0.0359,0.0461,0.0519,0.0564,0.0676,0.0727,0.0683,0.0883,0.0843,0.0857,0.0849,0.0876,0.0898,0.0918,0.0661,0.066,0.0659,0,0,0.0465,0.0403,0.0361,0.0364,0.0355,0.0353,0.0367,0.0391,0.0437,0.0529,0.055,0.0658,0.0771,0.0821,0.0865,0.1019,0.0985,0.107,0.1166,0.1199,0.1217,0.1232,0.1224,0.1238,0.1081,0.1081,0.1082,0,0.0491,0.0412,0.0366,0.0365,0.0379,0.0375,0.0395,0.0439,0.0489,0.0558,0.058,0.0806,0.0847,0.0988,0.1061,0.1068,0.1058,0.1071,0.1222,0.1236,0.1249,0.1237,0.125,0.109,0.1089,0.1088,0.1087,0,0.0474,0.0436,0.0437,0.0406,0.0427,0.0437,0.0477,0.0535,0.062,0.0691,0.088,0.0957,0.1086,0.1157,0.1169,0.1318,0.1272,0.1239,0.1152,0.1281,0.126,0.1271,0.1102,0.1099,0.1097,0.1094,0,0,0.0465,0.0421,0.0427,0.0431,0.0447,0.046,0.0545,0.0627,0.0706,0.0857,0.0995,0.12,0.1272,0.1324,0.1372,0.143,0.1539,0.1396,0.1394,0.1371,0.1591,0.1439,0.1435,0.1535,0.1538,0.154,0.1538,0,0.0476,0.0452,0.0444,0.0477,0.0479,0.0524,0.0601,0.069,0.0805,0.0937,0.1102,0.1258,0.1326,0.1413,0.1494,0.1533,0.1574,0.154,0.1483,0.148,0.1316,0.1445,0.1549,0.1546,0.1548,0.155,0.1551,0,0.0476,0.0445,0.0463,0.0489,0.0507,0.0547,0.0661,0.0734,0.0908,0.1022,0.1212,0.1319,0.1505,0.1502,0.1655,0.1635,0.1631,0.1641,0.164,0.1446,0.1349,0.1391,0.1568,0.1567,0.1566,0.1565,0.1563,0,0.0481,0.0476,0.0484,0.0498,0.0531,0.059,0.0636,0.0782,0.0871,0.1079,0.1169,0.1394,0.1491,0.1588,0.1653,0.1674,0.1728,0.174,0.1585,0.1571,0.1633,0.1616,0.1787,0.1787,0.1787,0.1787,0.1787,0,0.0487,0.0498,0.0486,0.0499,0.0537,0.0592,0.0692,0.078,0.0923,0.1034,0.1218,0.1319,0.1517,0.1578,0.1646,0.1643,0.1725,0.1617,0.1576,0.1699,0.169,0.1639,0.1622,0.1787,0.1787,0.1787,0.1787,0,0.0504,0.0492,0.0502,0.0528,0.054,0.0589,0.0686,0.0758,0.0894,0.1024,0.1101,0.1283,0.1398,0.1495,0.1598,0.1587,0.1617,0.1553,0.1646,0.1606,0.1448,0.1439,0.1464,0.1459,0.1454,0.1451,0.1448,0,0.0504,0.0504,0.0518,0.0522,0.054,0.0598,0.0636,0.0756,0.0827,0.0998,0.1048,0.1178,0.1293,0.1315,0.143,0.1494,0.1466,0.1445,0.1519,0.1465,0.1423,0.1421,0.1418,0.1441,0.144,0.1439,0.1438,0,0.0505,0.0525,0.0526,0.0516,0.0547,0.0569,0.0628,0.0664,0.0807,0.0912,0.1007,0.1089,0.1144,0.1263,0.1245,0.1307,0.1482,0.1402,0.1413,0.1484,0.1438,0.1399,0.1402,0.1423,0.1425,0.1426,0.1427,0,0.0516,0.051,0.0508,0.0504,0.0524,0.0527,0.0568,0.0623,0.0696,0.0867,0.0887,0.1021,0.1126,0.1156,0.1183,0.1197,0.1239,0.123,0.1252,0.1269,0.121,0.1123,0.0993,0,0,0,0,0,0.0507,0.0481,0.0479,0.0458,0.048,0.0488,0.0547,0.0596,0.0701,0.0744,0.0818,0.0888,0.0968,0.1036,0.1026,0.1115,0.1232,0.1097,0.1229,0.1341,0.1358,0.1308,0,0,0,0,0,0,0.049,0.0488,0.0461,0.042,0.0404,0.0419,0.0458,0.0531,0.0558,0.0677,0.0729,0.0818,0.0908,0.0962,0.1004,0.1021,0.1084,0.1171,0.1168,0.1331,0.1347,0.1361,0.1315,0,0,0,0,0]},{"header":{"parameterUnit":"m.s-1","parameterCategory":2,"la1":30.2991,"la2":30.254,"lo1":-89.0895,"lo2":-89.0444,"dy":0.0017,"dx":0.0017,"nx":28,"ny":28,"refTime":"2024-07-11T03:00:00:Z","depth":"4","parameterNumber":3,"parameterNumberName":"V-component_of_CURRENTS"},"data":[0,0,0,0,0,0,0,0,0,0,0,0,0,0,0,0,0,0,0,0,0,0,0,0,0,0,0,0,0,0,0,0,0,0,0,0,0,0,0,0,0,0,0,0,0,0,0,0,0,0,0,0,0,0,0,0,0,0,0.0581,0.058,0,0.0608,0.0608,0.0609,0.0651,0.0652,0.0652,0.0652,0.0716,0.0717,0.0718,0,0,0,0,0,0,0,0,0,0,0,0,0,0.0482,0.0484,0.0581,0.058,0.058,0.0607,0.0608,0.0609,0.0651,0.0652,0.0652,0.0653,0.0715,0.0717,0.0718,0,0,0,0,0,0,0,0,0,0,0,0,0,0.0522,0.0485,0.0581,0.0602,0.0604,0.0607,0.0608,0.0609,0.0651,0.0652,0.0652,0.0653,0.0715,0.0717,0.0719,0.0718,0,0,0.0725,0.0725,0,0,0,0,0,0,0,0,0.052,0.0526,0.0599,0.0601,0.0603,0.0623,0.0596,0.0646,0.0651,0.0637,0.0652,0.0653,0.0685,0.069,0.0698,0.0721,0.0724,0.0725,0.0726,0.0727,0.0727,0,0,0,0,0,0,0,0.0517,0.0525,0.0595,0.0599,0.0601,0.0581,0.0589,0.0606,0.0661,0.0638,0.0641,0.0637,0.0687,0.0696,0.07,0.0725,0.0725,0.0726,0.0728,0.0728,0.0716,0.0715,0,0,0,0,0,0,0.0511,0.0523,0.0594,0.0595,0.0558,0.0583,0.0591,0.0619,0.066,0.0665,0.0637,0.0639,0.0693,0.0698,0.0702,0.0715,0.0727,0.0729,0.073,0.0718,0.0716,0.0714,0,0,0,0,0,0,0.0509,0.0518,0.0593,0.0554,0.0562,0.0584,0.0615,0.0619,0.0655,0.0658,0.0665,0.067,0.0693,0.07,0.0723,0.0717,0.0729,0.0731,0.0719,0.0717,0.0715,0.0733,0,0,0,0,0,0,0.0507,0.0518,0.0545,0.0555,0.0564,0.0596,0.0614,0.0619,0.0648,0.0652,0.0688,0.0693,0.0694,0.072,0.0725,0.072,0.0733,0.0721,0.0718,0.0716,0.0734,0.0732,0.0729,0,0,0,0,0,0.0503,0.0526,0.0548,0.0556,0.06,0.0595,0.0598,0.0617,0.0649,0.0655,0.068,0.0693,0.0704,0.0722,0.0728,0.0723,0.0723,0.0719,0.0716,0.0735,0.0732,0.0729,0,0,0,0,0,0,0.0489,0.0532,0.0556,0.0592,0.0595,0.0601,0.0617,0.0633,0.0661,0.0677,0.0695,0.0701,0.0714,0.071,0.0728,0.0703,0.0707,0.0705,0.072,0.0717,0.0714,0.0723,0.0734,0,0,0,0,0,0.0501,0.054,0.0557,0.0585,0.0598,0.0619,0.0627,0.0634,0.0651,0.0667,0.0692,0.0702,0.0698,0.0705,0.0705,0.0709,0.0679,0.0698,0.0695,0.0694,0.07,0.0622,0.0614,0.0703,0.0703,0.0703,0,0,0.0501,0.053,0.0552,0.0585,0.0605,0.0616,0.0628,0.0641,0.0655,0.0668,0.0714,0.0709,0.0698,0.0693,0.0696,0.0696,0.0654,0.069,0.0689,0.0695,0.0618,0.0609,0.0602,0.0701,0.0701,0.0702,0,0,0.0501,0.0555,0.0583,0.0597,0.062,0.0623,0.0634,0.0655,0.0678,0.0704,0.0704,0.0696,0.072,0.0691,0.0683,0.0666,0.0648,0.0659,0.0658,0.0582,0.0575,0.0568,0.0532,0.0521,0.0653,0.0653,0.0653,0,0.05,0.055,0.0581,0.0607,0.0623,0.0634,0.0651,0.0666,0.0688,0.0705,0.0721,0.0723,0.0714,0.0688,0.0668,0.0664,0.0628,0.0679,0.0581,0.0573,0.0566,0.053,0.0518,0.0653,0.0653,0.0653,0.0653,0,0.0522,0.0563,0.058,0.0629,0.0639,0.0653,0.067,0.0688,0.0722,0.0734,0.0745,0.0725,0.072,0.0698,0.0685,0.062,0.0614,0.0593,0.0596,0.0559,0.0523,0.051,0.0654,0.0654,0.0654,0.0653,0,0,0.0523,0.0585,0.0595,0.0627,0.0659,0.0668,0.0688,0.0706,0.0731,0.0746,0.077,0.0737,0.0734,0.0719,0.0686,0.0612,0.0526,0.0579,0.0575,0.0558,0.0379,0.0361,0.0345,0.0481,0.0479,0.0477,0.0381,0,0.0537,0.0578,0.061,0.065,0.0676,0.0698,0.0718,0.0732,0.0751,0.0772,0.0753,0.0767,0.074,0.0734,0.0656,0.0563,0.0491,0.0555,0.0406,0.0402,0.0401,0.0329,0.0469,0.0371,0.0368,0.0366,0.0365,0,0.0562,0.0584,0.0626,0.0677,0.0696,0.0722,0.0758,0.0776,0.079,0.0812,0.0809,0.0802,0.0735,0.0706,0.0542,0.0583,0.0482,0.0403,0.0397,0.0366,0.0359,0.041,0.0342,0.0344,0.0345,0.0347,0.0348,0,0.0551,0.0606,0.0642,0.0664,0.0711,0.0747,0.0775,0.0795,0.0822,0.0842,0.0849,0.0798,0.0763,0.0639,0.0492,0.0509,0.0291,0.0299,0.0193,0.0192,0.0237,0.0245,0.0158,0.0158,0.0159,0.0159,0.0159,0,0.0566,0.0599,0.0652,0.0679,0.0728,0.0766,0.0819,0.0839,0.0866,0.0879,0.0876,0.0846,0.0731,0.0607,0.0485,0.0299,0.0286,0.0181,0.015,0.0248,0.0258,0.0229,0.0238,0.0155,0.0156,0.0157,0.0157,0,0.0563,0.0597,0.0644,0.0705,0.0731,0.0775,0.0855,0.0882,0.0908,0.0913,0.0923,0.0865,0.0714,0.0581,0.0364,0.0282,0.0116,0.0045,0.0174,0.0155,0.0082,0.0094,-0.0051,-0.0052,-0.0054,-0.0055,-0.0056,0,0.0566,0.0589,0.0661,0.0691,0.0736,0.0804,0.0843,0.0903,0.0924,0.0904,0.0894,0.078,0.0714,0.0414,0.0282,0.0071,0.003,-0.0029,0.0017,0.0068,0.0053,0.0067,0.008,-0.0059,-0.0059,-0.006,-0.006,0,0.0562,0.0598,0.0634,0.069,0.0752,0.0811,0.0872,0.0886,0.0924,0.0935,0.0842,0.0728,0.0551,0.0383,0.0207,0.0055,0.0035,-0.0045,-0.0042,0.0,0.0056,0.0046,0.0061,-0.0065,-0.0065,-0.0064,-0.0064,0,0.0561,0.0582,0.0631,0.0684,0.075,0.0801,0.084,0.085,0.0874,0.0849,0.0801,0.0654,0.0575,0.0369,0.0204,0.0062,0.0045,0.0021,0.0021,0.0025,0.0079,0.0164,0.0031,0,0,0,0,0,0.0547,0.0568,0.0615,0.0672,0.0738,0.0782,0.0845,0.0876,0.0892,0.0817,0.0815,0.0654,0.0435,0.0352,0.0202,0.0191,0.0031,0.0014,0.0006,-0.0095,-0.0089,-0.004,0,0,0,0,0,0,0.0539,0.0578,0.0602,0.0655,0.0691,0.0767,0.0811,0.0826,0.0789,0.0777,0.0657,0.0614,0.04,0.0499,0.019,0.0154,0.0131,-0.0081,-0.0084,-0.0099,-0.0093,-0.0088,-0.0035,0,0,0,0,0]}]]